Location: Serpentine
(32.3617°S, 115.9768°E)
Time: 11:04:29
(UTC+08:00)

LightSail 2 - Visible Passes

Search period start: 29 March 2020 00:00
Search period end: 08 April 2020 00:00
Orbit: 692 x 726 km, 24.0° (Epoch: 28 March)

Date Brightness Start Highest point End Pass type
(mag) Time Alt. Az. Time Alt. Az. Time Alt. Az.
29 Mar 6.9 19:31:52 10° NNW 19:34:56 16° NNE 19:35:42 15° NNE visible
30 Mar 7.3 18:33:55 10° N 18:35:55 12° NNE 18:37:53 10° NE visible
30 Mar 6.9 20:16:33 10° NW 20:19:11 22° NNW 20:19:11 22° NNW visible
31 Mar 6.7 19:17:46 10° NW 19:21:41 22° NNE 19:23:42 17° NE visible
31 Mar 7.8 21:02:05 10° WNW 21:02:36 12° NW 21:02:36 12° NW visible
01 Apr 6.3 20:03:02 10° NW 20:07:04 29° N 20:07:04 29° N visible
02 Apr 6.5 19:04:03 10° NW 19:08:25 27° N 19:11:30 16° ENE visible
02 Apr 7.4 20:48:49 10° WNW 20:50:23 18° NW 20:50:23 18° NW visible
03 Apr 6.1 19:49:38 10° WNW 19:54:17 32° N 19:54:47 32° NNE visible
04 Apr 6.4 18:50:31 10° NW 18:55:07 31° N 18:59:09 13° ENE visible
04 Apr 7.1 20:35:36 10° WNW 20:38:02 22° NW 20:38:02 22° NW visible
05 Apr 6.3 19:36:20 10° WNW 19:40:59 32° N 19:42:23 28° NNE visible
06 Apr 6.4 18:37:06 10° WNW 18:41:47 33° N 18:46:26 10° ENE visible
06 Apr 6.9 20:22:29 10° WNW 20:25:38 24° NNW 20:25:38 24° NNW visible
07 Apr 6.5 19:23:05 10° WNW 19:27:36 29° N 19:29:59 21° NE visible
